Location: *
(49.8044°N, 4.0558°E)
Time: 11:06:18
(UTC+00:00)

ASTEX 1 - Pass Details

Date: 09 April 2020
Orbit: 720 x 743 km, 92.7° (Epoch: 26 May)

Event Time Altitude Azimuth Distance (km) Brightness Sun altitude
Exits shadow 21:50:00 73° 29° (NNE) 775 3.4 -27.0°
Drops below altitude 10° 21:54:35 10° 356° (N) 2,250 6.7 -27.4°
Sets 21:56:53 0° 356° (N) 3,174 7.7 -27.6°
